STARLINK-36480, 67336

Orbit data source: Space-Track

STARLINK-36480, 67336 is a payload satellite owned by SpaceX/Seattle (US) in LEO that was launched on Fri, 09 Jan 2026 UTC via an FALCON 9 launch vehicle from the Air Force Eastern Test Range (AFETR). Payload-class satellites include a variety of spacecraft equipped with specific instruments for various scientific and technological missions. These include communications satellites like Starlink; space stations such as the ISS; scientific satellites like the Hubble; Earth observation satellites from companies like Planet Labs, Umbra, and HawkEye 360; GPS; miniature CubeSats for education and research; and military/defense satellites.

Loading next visibility...
Identifier
67336, 2026-003C
Orbit
LEO
Country
Flag of USUS
Related business
Manufacturer
SpaceX/Seattle
Mission
Operational Commercial Communications
Bus & Motor
STARLINK V2MO, Unknown motor
Mass
575 kg wet, ~530 kg dry
Launch date (UTC)
2026-01-09 (5 months ago)
Launch vehicle
FALCON 9
Launch site
Air Force Eastern Test Range (AFETR)
Object type
Payload
Rocket body
Debris
Shape & HBR
Box + 2 Pan, 17.7 m
Radar Cross Section
36.964 m², Large (>1 m²)

Expand to show TLE details & history
Last TLE update: 2 days ago

TLE from 2 days ago
0 STARLINK-36480
1 67336U 26003C   26169.98286046  .00021119  00000-0  77451-3 0  9994
2 67336  43.0033  15.1722 0002040 285.9005  74.1621 15.27591087 24319
Epoch: 2026-06-18T23:35Z
TLE epoch observation values (Epoch: 2026-06-18T23:35:19.143Z)
Latitude
-0.00008°
Longitude
114.12398°
Altitude
482.41 km
Speed
7.626 km/s
True Right ascension
01h 00m 41s
True Declination
0° 00' 00"
Sunlit
Object was in daylight at epoch
Visualization orbit readout
Latitude
Unknown
Longitude
Unknown
Altitude
Unknown
Speed
Unknown
Apparent Right ascension
Unknown
Apparent Declination
Unknown
Sunlit
N/A
Visualization observer readout
Local Sidereal Time
07:20:45
Azimuth
Unknown
Elevation
Unknown
Doppler factor
Unknown
Orbital elements
Apogee altitude
486.361 km
Perigee altitude
483.56 km
Semi-major axis
6,863.098 km
Eccentricity
0.0002
Inclination
43.0033°
RAAN
15.1722°
Arg. of periapsis
285.9005°
True anomaly
74.18459°
Mean anomaly
74.1621°
Eccentric anomaly
74.17335°
Mean motion
3.81736 °/min
Orbital period
94.31 mins
BSTAR
0.00077451
Loading maneuver chart data...
Computing Atmospheric mass density...
Loading historical data...
Loading historical data...
Loading historical data...
Loading historical data...
Loading historical data...
Loading historical data...
Loading historical data...

Documentation

Showing up to 5 results
|